Location: Unspecified
(0.0000°N, 0.0000°E)
Time: 21:10:06
(UTC+01:00)

Vanguard 2 Rocket - All Passes

Search period start: 22 January 2018 00:00
Search period end: 01 February 2018 00:00
Orbit: 556 x 3326 km, 32.9° (Epoch: 21 January)

Date Brightness Start Highest point End Pass type
(mag) Time Alt. Az. Time Alt. Az. Time Alt. Az.
22 Jan - 01:31:54 10° SSW 01:48:05 33° SSE 02:04:34 10° E visible
22 Jan - 03:47:57 10° SW 04:08:30 71° SE 04:24:19 10° ENE visible
22 Jan - 06:08:01 10° WSW 06:26:14 51° NW 06:38:04 10° NE visible
22 Jan - 08:36:49 10° WNW 08:42:29 13° NW 08:47:06 10° N daylight
22 Jan - 15:29:32 10° NNW 15:32:44 23° NE 15:36:32 10° E daylight
22 Jan - 17:41:14 10° W 17:45:42 38° SSW 17:52:37 10° SE daylight
22 Jan - 19:58:14 10° SW 20:02:03 13° S 20:06:48 10° SSE visible
22 Jan - 22:17:38 10° SSW 22:22:30 12° S 22:28:06 10° SSE visible
23 Jan - 00:31:42 10° SSW 00:45:05 25° SSE 01:00:12 10° ESE visible
23 Jan - 02:46:36 10° SW 03:06:06 56° SSE 03:23:19 10° ENE visible
23 Jan - 05:04:43 10° WSW 05:24:55 69° NW 05:38:53 10° NE visible
23 Jan - 07:29:39 10° W 07:41:41 24° NW 07:50:12 10° NNE daylight
23 Jan - 16:42:08 10° WNW 16:46:17 66° SSW 16:52:20 10° SE daylight
23 Jan - 18:57:32 10° SW 19:01:15 15° SSW 19:06:05 10° SSE daylight
23 Jan - 23:32:02 10° SSW 23:42:07 19° SSE 23:54:10 10° ESE visible
24 Jan - 01:45:53 10° SW 02:03:29 44° SSE 02:21:15 10° E visible
24 Jan - 04:02:19 10° SW 04:23:05 88° NW 04:39:05 10° NE visible
24 Jan - 06:24:15 10° W 06:40:41 36° NW 06:51:57 10° NNE visible
24 Jan - 15:43:23 10° NW 15:47:15 57° NE 15:52:07 10° ESE daylight
24 Jan - 17:57:16 10° WSW 18:00:59 19° SSW 18:06:02 10° SSE daylight
24 Jan - 22:33:07 10° S 22:39:19 14° SSE 22:46:38 10° SE visible
25 Jan - 00:45:44 10° SSW 01:00:49 33° SSE 01:17:52 10° E visible
25 Jan - 03:00:44 10° SW 03:20:50 74° SE 03:38:32 10° ENE visible
25 Jan - 05:20:08 10° WSW 05:39:18 51° NW 05:53:00 10° NE visible
25 Jan - 07:48:27 10° WNW 07:56:48 16° NNW 08:03:21 10° N daylight
25 Jan - 14:45:01 10° NNW 14:48:17 24° NE 14:51:44 10° E daylight
25 Jan - 16:57:29 10° W 17:01:13 28° SSW 17:06:18 10° SSE daylight
25 Jan - 23:46:09 10° SSW 23:58:12 25° SSE 00:12:53 10° ESE visible
26 Jan - 01:59:52 10° SW 02:18:23 58° SE 02:37:06 10° ENE visible
26 Jan - 04:17:09 10° WSW 04:37:31 68° NW 04:53:27 10° NE visible
26 Jan - 06:41:35 10° W 06:55:28 26° NW 07:05:37 10° NNE visible
26 Jan - 13:47:23 10° N 13:49:00 12° NNE 13:50:33 10° NE daylight
26 Jan - 15:58:04 10° WNW 16:01:54 53° SSW 16:06:44 10° SE daylight
26 Jan - 22:47:17 10° SSW 22:55:45 17° SSE 23:06:11 10° ESE visible
27 Jan - 00:59:38 10° SW 01:15:57 45° SE 01:34:33 10° E visible
27 Jan - 03:15:10 10° SW 03:35:21 86° NW 03:53:14 10° NE visible
27 Jan - 05:36:23 10° W 05:53:53 37° NW 06:06:53 10° NNE visible
27 Jan - 08:09:24 10° NW 08:12:32 11° NNW 08:15:23 10° NNW daylight
27 Jan - 14:58:57 10° NW 15:02:55 67° NE 15:07:08 10° ESE daylight
27 Jan - 17:14:10 10° SW 17:16:28 13° SSW 17:19:08 10° S daylight
27 Jan - 21:50:11 10° S 21:53:29 11° SSE 21:57:10 10° SE visible
28 Jan - 00:00:02 10° SSW 00:13:39 33° SSE 00:30:38 10° E visible
28 Jan - 02:14:02 10° SW 02:32:59 76° SE 02:52:16 10° ENE visible
28 Jan - 04:32:36 10° WSW 04:52:00 51° NW 05:07:32 10° NE visible
28 Jan - 07:00:10 10° WNW 07:10:48 18° NNW 07:19:07 10° N daylight
28 Jan - 14:00:04 10° NNW 14:03:54 29° NNE 14:07:22 10° E daylight
28 Jan - 16:13:41 10° W 16:16:48 21° SSW 16:20:28 10° SSE daylight
28 Jan - 23:01:03 10° SSW 23:11:34 23° SSE 23:25:09 10° ESE visible
29 Jan - 01:13:39 10° SW 01:30:40 59° SE 01:50:21 10° ENE visible
29 Jan - 03:30:03 10° WSW 03:49:49 67° NW 04:07:33 10° NE visible
29 Jan - 05:53:40 10° W 06:08:54 27° NNW 06:20:40 10° NNE visible
29 Jan - 13:01:23 10° NNW 13:04:30 16° NNE 13:07:10 10° ENE daylight
29 Jan - 15:13:47 10° WNW 15:17:35 42° SW 15:21:36 10° SE daylight
29 Jan - 22:03:03 10° S 22:09:40 15° SSE 22:17:50 10° ESE visible
30 Jan - 00:13:54 10° SSW 00:28:33 45° SE 00:47:19 10° ENE visible
30 Jan - 02:28:32 10° WSW 02:47:27 84° NW 03:06:54 10° NE visible
30 Jan - 04:48:51 10° W 05:06:46 38° NW 05:21:27 10° NNE visible
30 Jan - 07:19:57 10° NW 07:26:47 13° NNW 07:32:33 10° N daylight
30 Jan - 12:03:13 10° N 12:04:38 11° NNE 12:05:57 10° NNE daylight
30 Jan - 14:14:11 10° NW 14:18:38 81° NE 14:22:33 10° ESE daylight
30 Jan - 23:14:46 10° SSW 23:26:45 32° SE 23:42:58 10° E visible
31 Jan - 01:27:51 10° SW 01:45:08 78° SE 02:05:28 10° ENE visible
31 Jan - 03:45:32 10° WSW 04:04:26 51° NW 04:21:37 10° NE visible
31 Jan - 06:12:06 10° WNW 06:24:30 20° NNW 06:34:28 10° NNE visible
31 Jan - 13:14:41 10° NW 13:19:31 37° NNE 13:23:16 10° E daylight
31 Jan - 15:29:44 10° WSW 15:32:21 17° SSW 15:35:04 10° S daylight
31 Jan - 22:16:21 10° SSW 22:25:13 21° SSE 22:37:06 10° ESE visible
